JCT71 KBJC-KHDN

Flight info

Callsign JCT71
Flight time 0h 24m
Altitude 24000
Route WNGSS1 CHNGY TILLI
Aircraft C750/M-SBDE3FGHRWXY/S

Departure

Time 2026-04-28 17:59
Airport Rocky Mountain Metropolitan Airport (KBJC)

Arrival

Time 2026-04-28 18:23
Airport Yampa Valley Airport (KHDN)
Time Latitude Longitude Altitude Speed Heading
2026-04-28 17:42 39.90576 -105.10600 5595 ft 0 kts 128°
2026-04-28 17:53 39.90573 -105.10599 5595 ft 0 kts 160°
2026-04-28 17:53 39.90537 -105.10589 5600 ft 10 kts 168°
2026-04-28 17:53 39.90507 -105.10561 5592 ft 1 kts 128°
2026-04-28 17:53 39.90506 -105.10561 5592 ft 0 kts 128°
2026-04-28 17:54 39.90501 -105.10553 5592 ft 3 kts 132°
2026-04-28 17:54 39.90468 -105.10551 5599 ft 6 kts 180°
2026-04-28 17:54 39.90431 -105.10499 5590 ft 11 kts 126°
2026-04-28 17:54 39.90376 -105.10397 5584 ft 17 kts 122°
2026-04-28 17:55 39.90303 -105.10255 5576 ft 20 kts 124°
2026-04-28 17:55 39.90251 -105.10155 5572 ft 4 kts 124°
2026-04-28 17:55 39.90226 -105.10137 5571 ft 0 kts 185°
2026-04-28 17:57 39.90200 -105.10150 5570 ft 8 kts 210°
2026-04-28 17:57 39.90150 -105.10212 5571 ft 11 kts 266°
2026-04-28 17:58 39.90162 -105.10247 5573 ft 3 kts 306°
2026-04-28 17:58 39.90372 -105.10638 5590 ft 105 kts 304°
2026-04-28 17:58 39.90885 -105.11649 5742 ft 149 kts 309°
2026-04-28 17:58 39.91478 -105.12865 6188 ft 169 kts 306°
2026-04-28 17:59 39.92363 -105.13931 6594 ft 184 kts 338°
2026-04-28 17:59 39.93670 -105.14204 7090 ft 199 kts 358°
2026-04-28 17:59 39.95124 -105.14295 7648 ft 224 kts 358°
2026-04-28 17:59 39.96771 -105.14406 8206 ft 252 kts 358°
2026-04-28 18:00 39.98642 -105.14524 8297 ft 280 kts 358°
2026-04-28 18:00 40.00584 -105.14641 8213 ft 279 kts 358°
2026-04-28 18:00 40.02527 -105.14756 8208 ft 278 kts 357°
2026-04-28 18:00 40.04388 -105.14859 9059 ft 267 kts 358°
2026-04-28 18:01 40.06301 -105.14954 9756 ft 283 kts 357°
2026-04-28 18:01 40.08297 -105.15036 10523 ft 294 kts 356°
2026-04-28 18:01 40.10410 -105.14573 10613 ft 330 kts 20°
2026-04-28 18:01 40.12339 -105.12709 10587 ft 365 kts 47°
2026-04-28 18:02 40.13576 -105.09693 10530 ft 394 kts 73°
2026-04-28 18:02 40.13692 -105.06117 11118 ft 397 kts 100°
2026-04-28 18:02 40.12692 -105.02762 11726 ft 399 kts 122°
2026-04-28 18:02 40.11002 -104.99937 12276 ft 402 kts 134°
2026-04-28 18:03 40.09073 -104.97272 12880 ft 406 kts 136°
2026-04-28 18:03 40.06832 -104.95042 13291 ft 406 kts 156°
2026-04-28 18:03 40.04140 -104.94150 13952 ft 397 kts 178°
2026-04-28 18:03 40.01392 -104.93990 14552 ft 396 kts 184°
2026-04-28 18:04 39.98670 -104.94545 15094 ft 394 kts 198°
2026-04-28 18:04 39.96128 -104.95816 15684 ft 392 kts 210°
2026-04-28 18:04 39.93849 -104.97754 16282 ft 390 kts 221°
2026-04-28 18:04 39.91940 -105.00250 16898 ft 389 kts 232°
2026-04-28 18:05 39.90467 -105.03196 17559 ft 388 kts 243°
2026-04-28 18:05 39.89761 -105.05332 17995 ft 389 kts 251°
2026-04-28 18:05 39.89044 -105.09901 18836 ft 392 kts 265°
2026-04-28 18:05 39.89152 -105.13468 19397 ft 398 kts 276°
2026-04-28 18:06 39.89694 -105.17017 20016 ft 401 kts 279°
2026-04-28 18:06 39.90262 -105.20585 20734 ft 401 kts 280°
2026-04-28 18:06 39.90812 -105.24110 21637 ft 395 kts 280°
2026-04-28 18:06 39.91362 -105.27617 22298 ft 396 kts 280°
2026-04-28 18:07 39.91920 -105.31147 22883 ft 398 kts 280°
2026-04-28 18:07 39.92478 -105.34687 23521 ft 399 kts 280°
2026-04-28 18:07 39.93020 -105.38146 24066 ft 382 kts 280°
2026-04-28 18:07 39.93548 -105.41543 24103 ft 393 kts 280°
2026-04-28 18:08 39.94091 -105.45042 24105 ft 395 kts 280°
2026-04-28 18:08 39.94640 -105.48554 24121 ft 397 kts 280°
2026-04-28 18:08 39.95189 -105.52075 24125 ft 398 kts 280°
2026-04-28 18:08 39.95736 -105.55615 24132 ft 398 kts 279°
2026-04-28 18:09 39.96280 -105.59156 24149 ft 398 kts 279°
2026-04-28 18:09 39.96826 -105.62707 24161 ft 403 kts 280°
2026-04-28 18:09 39.97324 -105.66345 24147 ft 413 kts 276°
2026-04-28 18:09 39.97545 -105.70089 24175 ft 416 kts 273°
2026-04-28 18:10 39.97727 -105.73869 24177 ft 418 kts 274°
2026-04-28 18:10 39.97936 -105.77654 24181 ft 419 kts 274°
2026-04-28 18:10 39.98134 -105.81392 24183 ft 419 kts 274°
2026-04-28 18:10 39.98313 -105.85181 24187 ft 419 kts 273°
2026-04-28 18:11 39.98492 -105.88974 24188 ft 419 kts 273°
2026-04-28 18:11 39.98682 -105.92776 24191 ft 420 kts 274°
2026-04-28 18:11 39.98876 -105.96569 24193 ft 420 kts 274°
2026-04-28 18:11 39.99060 -106.00363 24184 ft 419 kts 273°
2026-04-28 18:12 39.99238 -106.04159 24191 ft 420 kts 273°
2026-04-28 18:12 39.99418 -106.07960 24198 ft 420 kts 273°
2026-04-28 18:12 39.99602 -106.11757 24198 ft 419 kts 273°
2026-04-28 18:12 39.99785 -106.15557 24198 ft 420 kts 273°
2026-04-28 18:13 39.99960 -106.19349 24195 ft 419 kts 273°
2026-04-28 18:13 40.00135 -106.23148 24192 ft 420 kts 273°
2026-04-28 18:13 40.00309 -106.26857 23904 ft 410 kts 273°
2026-04-28 18:13 40.00479 -106.30560 23359 ft 406 kts 273°
2026-04-28 18:14 40.00646 -106.34229 22831 ft 405 kts 273°
2026-04-28 18:14 40.00840 -106.37880 22290 ft 404 kts 275°
2026-04-28 18:14 40.01314 -106.41489 21757 ft 404 kts 281°
2026-04-28 18:14 40.02087 -106.45007 21208 ft 404 kts 286°
2026-04-28 18:15 40.03162 -106.48415 20480 ft 403 kts 292°
2026-04-28 18:15 40.04511 -106.51639 19949 ft 408 kts 298°
2026-04-28 18:15 40.06144 -106.54675 19414 ft 409 kts 304°
2026-04-28 18:15 40.07947 -106.57552 18869 ft 409 kts 305°
2026-04-28 18:16 40.09715 -106.60395 18333 ft 408 kts 305°
2026-04-28 18:16 40.11487 -106.63274 17794 ft 406 kts 305°
2026-04-28 18:16 40.13263 -106.66136 17253 ft 405 kts 306°
2026-04-28 18:16 40.15038 -106.68984 16729 ft 402 kts 306°
2026-04-28 18:17 40.16790 -106.71809 16177 ft 400 kts 306°
2026-04-28 18:17 40.18533 -106.74628 15655 ft 397 kts 306°
2026-04-28 18:17 40.20263 -106.77428 15123 ft 394 kts 306°
2026-04-28 18:17 40.21983 -106.80211 14611 ft 393 kts 307°
2026-04-28 18:18 40.23599 -106.83071 14068 ft 389 kts 300°
2026-04-28 18:18 40.24849 -106.86129 13584 ft 385 kts 295°
2026-04-28 18:18 40.26104 -106.89176 13063 ft 369 kts 300°
2026-04-28 18:18 40.27102 -106.90966 12743 ft 351 kts 307°
2026-04-28 18:19 40.29227 -106.93949 12196 ft 331 kts 312°
2026-04-28 18:19 40.30814 -106.96156 11768 ft 335 kts 311°
2026-04-28 18:19 40.32395 -106.98402 11333 ft 336 kts 311°
2026-04-28 18:19 40.33956 -107.00594 10915 ft 319 kts 312°
2026-04-28 18:20 40.35432 -107.02643 10516 ft 300 kts 312°
2026-04-28 18:20 40.36818 -107.04583 10136 ft 279 kts 312°
2026-04-28 18:20 40.38098 -107.06377 9780 ft 271 kts 312°
2026-04-28 18:20 40.39395 -107.08190 9374 ft 269 kts 313°
2026-04-28 18:21 40.40625 -107.09895 8940 ft 240 kts 313°
2026-04-28 18:21 40.41690 -107.11378 8557 ft 212 kts 312°
2026-04-28 18:21 40.42725 -107.12827 8226 ft 222 kts 311°
2026-04-28 18:21 40.43782 -107.14303 7910 ft 218 kts 312°
2026-04-28 18:22 40.44774 -107.15589 7634 ft 184 kts 319°
2026-04-28 18:22 40.45744 -107.16489 7353 ft 160 kts 321°
2026-04-28 18:22 40.46508 -107.17467 7044 ft 148 kts 307°
2026-04-28 18:22 40.47022 -107.18533 6932 ft 133 kts 296°
2026-04-28 18:23 40.47396 -107.19632 6713 ft 131 kts 292°
2026-04-28 18:23 40.47737 -107.20665 6610 ft 110 kts 293°
2026-04-28 18:23 40.47966 -107.21343 6606 ft 56 kts 295°
2026-04-28 18:23 40.48090 -107.21663 6600 ft 31 kts 297°
2026-04-28 18:24 40.48160 -107.21873 6598 ft 10 kts 288°
2026-04-28 18:24 40.48169 -107.21905 6598 ft 12 kts 297°
2026-04-28 18:24 40.48304 -107.21883 6599 ft 16 kts 25°
2026-04-28 18:24 40.48328 -107.21869 6599 ft 0 kts 25°